Showing default

GONETS D1 2, 23788

Orbit data source: Space-Track

GONETS D1 2, 23788 is a payload satellite owned by Gonets (CIS) in LEO that was launched on Mon, 19 Feb 1996 UTC via a TSIKLON-3 launch vehicle from the Plesetsk Missile And Space Complex (PKMTR). Payload-class satellites include a variety of spacecraft equipped with specific instruments for various scientific and technological missions. These include communications satellites like Starlink; space stations such as the ISS; scientific satellites like the Hubble; Earth observation satellites from companies like Planet Labs, Umbra, and HawkEye 360; GPS; miniature CubeSats for education and research; and military/defense satellites.

Loading next visibility...
Identifier
23788, 1996-009B
Orbit
LEO
Country
Flag of CISCIS
Related business
Manufacturer
NPO PM
Mission
Non-operational Civil Communications
Bus & Motor
STRELA-3, Unknown motor
Mass
225 kg wet, 225 kg dry
Launch date (UTC)
1996-02-19 (30 years ago)
Launch vehicle
TSIKLON-3
Launch site
Plesetsk Missile And Space Complex (PKMTR)
Object type
Payload
Rocket body
Debris
Shape & HBR
Cyl + 1 Ant, 3.5 m
Radar Cross Section
1.798 m², Large (>1 m²)

Expand to show TLE details & history
Last TLE update: 12 hours ago

TLE from 12 hours ago
0 GONETS D1 2
1 23788U 96009B   26194.71251031  .00000018  00000-0  39391-4 0  9992
2 23788  82.5712 287.5243 0006995  19.3368 340.7988 12.63217491401443
Epoch: 2026-07-13T17:06Z
TLE epoch observation values (Epoch: 2026-07-13T17:06:00.890Z)
Latitude
-0.00001°
Longitude
99.4275°
Altitude
1,407.278 km
Speed
7.159 km/s
True Right ascension
19h 10m 05s
True Declination
0° 00' 00"
Sunlit
Object was in full shadow at epoch
Visualization orbit readout
Latitude
Unknown
Longitude
Unknown
Altitude
Unknown
Speed
Unknown
Apparent Right ascension
Unknown
Apparent Declination
Unknown
Sunlit
N/A
Visualization observer readout
Local Sidereal Time
17:39:02
Azimuth
Unknown
Elevation
Unknown
Doppler factor
Unknown
Orbital elements
Apogee altitude
1,412.458 km
Perigee altitude
1,401.566 km
Semi-major axis
7,785.149 km
Eccentricity
0.0007
Inclination
82.5712°
RAAN
287.5243°
Arg. of periapsis
19.3368°
True anomaly
340.77242°
Mean anomaly
340.7988°
Eccentric anomaly
340.78561°
Mean motion
3.15968 °/min
Orbital period
113.94 mins
BSTAR
0.000039391
Loading maneuver chart data...
Computing Atmospheric mass density...
Loading historical data...
Loading historical data...
Loading historical data...
Loading historical data...
Loading historical data...
Loading historical data...
Loading historical data...

Documentation

Showing up to 5 results
|